Overview Statistics Trail Chart Weather Telemetry Raw packets
 

This is the latest recevied weather packets stored in our database for station/object KB4MOX. If no packets are shown the sender has not sent any weather packets the latest 10 day(s).

<< 101 102 103 104 105 106 107 >>
Time Temp. Humidity Pressure Rain* Wind** Luminosity Snow
1787859391 30° C 65% 1015.1 hPa 0 mm - 647 W/m² -
1787859087 29.44° C 63% 1014.8 hPa 0 mm - 627 W/m² -
1787858782 30° C 63% 1014.9 hPa 0 mm - 233 W/m² -
1787858479 30° C 64% 1015.1 hPa 0 mm - 768 W/m² -
1787858177 29.44° C 65% 1015 hPa 0 mm - 548 W/m² -
1787857873 29.44° C 66% 1015 hPa 0 mm - 705 W/m² -
1787857569 28.89° C 68% 1015 hPa 0 mm - 307 W/m² -
1787857263 28.89° C 69% 1015.3 hPa 0 mm - 846 W/m² -
1787856962 28.33° C 72% 1015.3 hPa 0 mm - 381 W/m² -
1787856656 27.78° C 75% 1015.3 hPa 0 mm - 317 W/m² -
1787856352 27.78° C 75% 1015.5 hPa 0 mm - 322 W/m² -
1787856047 27.22° C 79% 1015.6 hPa 0 mm - 388 W/m² -
1787855746 26.67° C 80% 1015.5 hPa 0 mm - 287 W/m² -
1787855442 26.67° C 78% 1015.4 hPa 0 mm - 278 W/m² -
1787855137 26.67° C 76% 1015.3 hPa 0 mm - 226 W/m² -
1787854832 26.67° C 75% 1015.2 hPa 0 mm - 193 W/m² -
1787854532 26.67° C 75% 1015.4 hPa 0 mm - 173 W/m² -
1787854227 26.67° C 77% 1015.7 hPa 0 mm - 162 W/m² -
1787853926 26.67° C 77% 1015.9 hPa 0 mm - 187 W/m² -
1787853621 27.22° C 77% 1015.8 hPa 0 mm - 155 W/m² -
1787853320 26.67° C 83% 1015.9 hPa 0 mm - 221 W/m² -
1787853015 26.67° C 84% 1015.7 hPa 0 mm - 188 W/m² -
1787852709 26.67° C 85% 1015.8 hPa 0 mm - 181 W/m² -
1787852408 27.22° C 86% 1015.5 hPa 0 mm - 185 W/m² -
1787852115 27.22° C 86% 1015.5 hPa 0 mm - 196 W/m² -

* Rain latest hour (hover to see other rain measurements)
** Current wind speed in m/s (hover to see current wind gust speed)